Find Starlink 31851

NORAD ID: 59844 Int'l Des: 2024-097 Owner: SPXS Country: US Constellation: starlink operational
LEOCIRCULAR

現在のビュー

3D地球を読み込み中...

About Starlink 31851

Starlink 31851 (NORAD 59844) is a starlink constellation satellite (v2 mini) launched May 23, 2024 by SPXS of US. It operates in LEO, CIRCULAR orbit with a mass of 730.00 kg.

次回通過

Passes for default location (London). Set your location on the main map for personalized predictions.

高度履歴

Loading altitude history...

軌道要素

1 59844U 24097K 26248.27269412 .00000163 00000-0 15462-4 0 9999
2 59844 43.0004 340.0051 0001287 271.2538 88.8166 15.27573321129388
Epoch: Sep 5, 2026 • Age: 11 hours

現在のステータス

高度 490.0 km
遠地点 / 近地点 N/A
速度 7.62 km/s
衛星直下点 -28.96°S, 56.47°E
打ち上げ日 May 23, 2024
運用期間 2.2 years
タイプ internet

技術仕様

分類 Payload
質量 730.00 kg
乾燥質量 700.00 kg
総質量 730.00 kg
長さ 0.30 m
直径 4.10 m
スパン 29.00 m
形状 Box + pan
製造者 SPXS
バスタイプ Starlink V2M
フェーズステータス In Orbit
所有者/国 SPXS/US

Most Searched